Dewpoint
59 52 51 48 47 41 30 25 26 21 13 8 0 -5 -5 -5 -3 -4 -1 9 5 13 25 25 15 14 17 27 41 44 47 51 55 49 53 63 66 68 66 66 65 65 65 65 68 71 72 73 74 74 74 74 74 74 74 74 73 73 73 73 73 73 73 73 73 73 72 72 71 71 71 70 70 70 69 69 70 69 69 68 68 67 67 68 68 67 68 68 67 67 68 68 68 67 66 67 67
47 49 47 45 38 36 27 22 19 13 12 2 -7 -11 2 2 4 -8 -2 6 10 13 14 13 12 15 24 36 44 45 51 57 58 58 64 65 68 68 67 66 65 64 65 65 67 68 69 72 73 73 74 74 74 74 74 73 73 73 73 73 73 73 73 73 73 72 72 71 71 70 70 70 70 69 69 69 69 71 70 69 67 66 68 68 68 67 68 68 68 68 68 69 69 68 67 66 67
45 41 31 33 35 34 32 14 14 8 4 3 -3 -6 4 -1 -5 1 2 7 11 11 12 13 13 19 32 40 41 41 58 58 58 60 64 67 65 67 67 66 65 64 65 65 66 65 67 70 73 73 73 73 73 73 73 73 74 73 73 73 73 73 73 72 72 72 71 71 71 70 70 70 70 69 69 68 69 70 70 69 68 68 69 68 68 67 68 68 68 68 69 69 70 70 69 67 66
54 36 29 27 28 24 26 9 3 2 2 -4 -10 -1 -2 -1 2 6 8 8 10 10 13 13 16 41 42 41 50 49 56 57 60 61 63 64 66 67 67 66 67 64 64 63 64 64 67 72 73 73 73 73 73 73 73 73 73 73 73 73 73 73 72 72 72 71 71 71 70 70 70 70 69 69 69 69 69 70 69 69 70 68 69 69 68 68 69 69 69 69 69 69 70 69 69 69 67
44 36 37 28 26 20 15 15 5 1 -2 -8 -9 1 2 -0 4 10 9 11 10 10 13 15 19 46 53 57 55 50 58 59 60 62 61 66 67 67 67 66 65 64 63 62 63 64 69 72 73 73 73 73 73 73 73 73 73 73 73 73 73 73 72 72 72 71 71 70 70 70 70 70 69 69 69 69 68 69 69 70 70 70 69 69 69 70 70 70 70 69 69 69 69 69 69 69 68
38 32 30 34 29 32 21 15 12 2 -1 -5 -6 -4 0 9 10 10 9 10 11 13 14 17 28 44 49 58 60 60 63 61 61 63 65 66 67 67 66 66 64 63 62 63 64 67 69 72 72 72 72 73 73 73 73 73 73 73 73 72 72 72 72 72 71 71 70 70 70 70 70 69 70 70 69 68 68 69 69 71 71 71 70 70 70 70 70 70 70 69 69 69 69 68 68 69 68
31 30 22 29 28 21 17 10 4 -1 -6 -6 -5 -6 6 10 10 9 11 18 14 14 17 22 33 48 52 58 59 62 64 62 61 63 66 67 68 67 67 65 64 63 63 63 64 67 69 72 72 72 72 72 72 73 73 73 73 72 72 72 72 72 71 71 71 71 71 71 71 70 70 70 70 70 70 69 69 70 70 71 71 72 71 71 70 71 71 70 70 69 69 68 68 68 69 69 69
34 27 17 15 18 8 8 7 7 1 2 3 1 1 10 10 9 10 11 11 16 12 16 27 41 44 53 53 55 63 63 64 62 66 67 67 67 66 65 64 64 63 63 65 65 68 72 71 72 72 72 72 72 72 72 72 72 72 72 72 72 71 71 71 71 71 71 71 71 71 70 70 70 70 70 71 70 70 70 70 71 71 71 71 71 71 70 70 69 69 68 68 68 69 69 69 69
31 30 28 12 15 15 5 4 4 -1 -3 -3 2 12 29 9 8 9 10 20 21 18 23 28 38 42 50 56 60 63 63 64 64 67 68 67 66 66 65 65 63 64 64 63 66 70 70 72 71 71 72 72 72 72 72 72 72 72 72 71 71 72 72 72 71 71 71 71 71 70 70 70 70 70 70 70 70 70 71 71 71 71 71 71 71 70 70 70 69 68 69 68 68 69 69 69 69
27 29 21 11 15 15 9 0 -3 -8 -4 -1 -3 11 9 9 10 12 16 21 21 23 17 18 31 36 54 55 59 64 64 64 65 66 67 68 67 65 65 65 64 64 63 64 66 66 69 72 71 71 71 72 72 72 72 72 72 72 72 72 72 72 72 72 71 71 71 71 71 71 71 71 71 71 70 70 70 70 70 70 71 71 71 71 70 70 69 69 69 69 68 68 68 69 69 69 70
24 15 20 17 9 6 4 -0 -6 -3 -3 -4 3 10 9 8 14 16 20 24 32 24 18 18 22 38 53 57 63 65 65 64 65 66 68 67 67 66 65 66 65 64 64 65 67 67 68 70 72 71 71 71 71 71 71 72 72 72 72 72 72 72 72 71 71 71 71 71 71 70 70 71 71 71 70 70 70 70 70 70 70 70 70 70 69 69 69 68 68 68 68 68 69 69 69 69 69
22 12 9 8 11 7 -3 -5 -8 -8 -4 -3 4 10 9 9 11 16 26 28 23 17 17 20 31 48 55 57 61 66 66 66 66 66 67 66 65 65 65 64 65 65 65 65 65 68 67 69 70 72 72 72 71 71 71 72 72 72 72 72 72 72 72 71 71 71 71 71 71 70 71 71 71 70 70 70 70 70 70 70 70 70 70 69 69 69 68 68 68 68 69 69 69 69 69 69 69
21 19 8 5 3 2 -1 -2 -3 -5 -3 -2 9 11 9 11 11 16 25 31 31 23 14 23 44 50 56 56 64 66 66 66 66 66 66 65 65 65 65 64 64 64 65 64 65 66 68 67 67 70 70 72 72 72 72 72 72 72 72 72 72 72 71 72 71 71 71 71 70 71 71 71 70 70 70 70 70 71 71 70 70 70 69 69 69 68 68 68 69 69 69 69 69 69 68 69 69
16 17 12 9 3 -1 -1 -3 -7 -2 -8 7 10 10 9 8 14 18 32 30 30 20 29 43 54 53 59 60 63 64 65 66 67 66 65 65 65 64 65 64 65 63 64 64 65 66 66 67 68 68 71 71 71 72 72 72 72 72 72 72 72 72 72 72 72 71 71 70 70 71 71 71 70 70 69 70 70 70 70 70 70 69 69 69 68 68 68 69 69 69 69 69 69 69 69 69 69
16 11 12 10 6 5 -4 -7 -9 -9 2 7 12 10 9 14 13 27 34 36 33 50 50 50 54 52 59 57 59 62 65 66 67 67 66 65 65 65 64 64 65 64 63 64 64 66 66 67 67 68 70 69 70 70 70 72 72 71 72 72 72 72 72 72 71 71 71 71 70 70 70 71 70 70 70 71 70 70 70 70 69 69 69 68 68 68 68 69 69 69 69 69 69 69 69 69 69
16 13 11 11 3 -2 -4 -7 -4 -5 5 8 11 10 9 12 17 28 41 46 49 49 51 47 57 56 57 53 59 63 65 66 67 67 66 65 65 64 63 64 64 62 63 65 66 66 66 67 66 67 68 68 69 68 69 70 72 72 72 72 71 71 71 71 71 71 71 71 70 70 70 70 70 70 70 70 70 70 70 69 69 69 69 68 68 68 68 68 69 69 69 69 69 69 69 69 69
11 12 14 7 3 -1 -5 -4 -5 -8 7 9 11 10 9 11 17 30 42 41 47 47 47 55 54 58 59 55 60 65 66 67 67 67 67 66 65 63 64 64 63 63 65 65 65 66 66 66 67 65 67 68 68 68 69 69 71 72 71 71 71 71 71 71 71 71 71 70 70 70 71 70 69 69 69 68 70 68 70 70 69 68 68 68 68 68 68 68 68 69 69 70 69 69 69 69 69
12 11 8 8 2 -3 -5 -6 -1 7 3 10 10 10 10 10 16 21 35 42 51 48 52 56 57 58 58 59 62 65 66 67 67 66 65 65 64 63 62 63 63 63 64 64 65 65 66 66 65 66 67 67 68 67 67 68 70 70 69 69 70 71 71 71 71 69 69 69 69 69 69 69 68 69 69 68 68 68 69 69 69 68 68 68 68 68 68 68 68 69 69 69 70 70 69 67 68
11 8 6 4 1 5 4 6 4 4 8 9 9 10 11 12 16 18 26 42 45 45 53 55 55 59 59 60 62 66 66 67 68 67 65 65 63 63 63 65 62 63 64 64 65 65 65 65 66 66 66 67 69 68 66 67 68 67 67 67 67 68 69 69 67 66 66 65 65 65 69 71 68 68 69 68 69 68 69 69 69 69 68 68 68 69 68 68 68 67 68 69 69 70 67 65 66
9 9 4 2 2 7 8 6 5 5 7 6 10 9 10 11 16 22 19 27 41 46 51 54 54 57 60 61 63 65 66 66 67 67 65 64 63 63 63 64 62 63 64 64 64 65 65 65 66 66 66 68 69 67 66 66 65 66 65 65 65 66 67 66 66 64 62 63 62 66 69 69 68 70 68 68 68 69 69 69 69 68 68 68 68 68 68 68 67 67 66 68 69 68 67 66 63
5 6 7 4 12 8 5 5 7 9 6 9 9 9 8 9 13 18 17 20 32 44 55 48 52 54 60 61 64 65 66 66 66 66 65 64 64 64 63 64 64 64 64 65 65 66 66 67 67 67 69 70 69 66 66 65 64 64 64 63 63 65 67 67 69 68 70 69 66 69 69 68 68 68 69 69 69 68 66 66 67 67 67 67 67 64 63 63 65 61 63 64 65 64 64 66 69
7 2 2 5 10 8 7 10 11 9 10 6 9 8 8 11 15 13 13 12 15 35 52 57 54 57 58 62 64 64 64 65 65 64 64 65 64 64 65 65 65 65 65 64 64 65 66 68 68 67 69 69 69 68 67 65 65 65 65 70 69 67 66 67 69 70 69 69 70 68 67 69 68 67 68 69 68 66 65 64 63 63 62 63 65 62 62 61 61 60 60 61 62 62 64 68 68
7 7 9 10 9 9 9 11 10 10 8 9 9 9 11 10 12 12 14 11 14 34 39 44 56 55 56 61 63 64 63 65 65 65 64 65 64 64 65 65 65 64 64 65 64 66 68 69 67 67 68 69 69 68 67 69 69 69 69 70 68 67 68 68 69 69 68 69 68 69 68 69 69 69 69 71 69 66 65 62 62 63 63 62 64 62 62 60 61 60 59 61 61 61 63 66 68
8 3 7 5 7 9 7 7 8 9 10 11 12 11 9 8 11 10 13 11 11 21 29 35 48 55 57 58 63 63 63 63 65 66 64 64 65 65 65 65 64 66 65 64 64 66 67 68 69 68 68 67 70 69 68 67 69 69 71 70 69 72 69 70 70 69 69 69 68 68 70 69 69 69 69 69 69 69 67 63 63 61 61 60 62 61 61 60 59 59 60 59 58 59 59 67 69
8 3 5 13 14 13 11 9 9 9 13 12 10 9 7 7 9 9 12 9 20 26 29 32 52 54 55 57 60 63 64 64 64 65 64 63 63 64 65 64 66 65 66 65 65 66 67 68 68 66 66 67 66 69 68 70 70 69 70 69 69 68 69 69 70 69 68 68 69 69 69 68 68 68 68 69 69 67 65 64 62 62 62 61 62 60 59 60 60 59 61 60 59 58 63 62 65
6 6 4 4 7 11 10 9 10 12 12 10 9 7 5 7 8 10 10 9 24 32 34 40 52 53 54 57 61 63 64 64 64 65 64 63 65 65 64 65 65 65 65 66 67 67 67 68 67 66 67 68 69 70 68 67 70 68 69 69 69 68 69 69 69 68 68 69 68 68 68 69 67 68 69 68 67 67 65 64 63 62 62 61 62 63 61 60 60 60 60 58 53 56 61 61 63
15 8 5 5 7 10 11 12 13 12 10 9 8 6 5 6 8 7 10 23 27 29 41 50 51 54 55 58 60 65 63 63 64 65 65 65 65 65 65 65 64 66 67 67 67 67 67 66 66 68 67 69 69 68 69 69 70 68 68 68 69 67 68 67 69 69 69 68 68 67 68 69 68 68 68 67 66 64 64 63 62 62 61 62 63 63 63 62 60 60 59 57 58 57 59 64 62
8 16 16 14 12 12 13 13 12 9 6 7 6 3 3 5 7 6 18 27 26 32 42 48 53 55 56 57 59 63 63 64 64 65 64 65 65 64 64 64 65 67 67 67 67 67 66 67 67 67 68 69 68 68 69 71 70 69 68 68 69 69 67 68 67 67 68 69 67 67 68 69 69 70 70 66 65 62 62 62 63 63 63 63 63 63 62 63 61 59 58 60 60 60 61 63 63
11 11 7 7 5 4 6 8 8 9 5 6 7 5 4 5 5 7 11 27 23 31 43 47 50 55 55 57 59 61 63 64 64 64 64 64 65 65 65 65 65 66 66 67 66 65 66 65 67 66 68 68 68 68 69 69 70 67 68 69 69 68 68 68 66 67 68 69 68 67 68 68 69 70 71 68 63 60 61 63 63 65 65 66 65 63 63 64 66 65 64 63 61 60 62 63 63
11 8 8 5 1 1 3 6 7 7 6 6 7 2 -2 -2 0 4 6 21 24 28 40 48 54 53 52 57 58 60 61 64 64 65 64 65 65 65 65 66 66 66 66 68 66 65 66 67 67 68 68 67 67 66 68 68 69 67 69 68 69 68 69 68 69 68 68 68 68 68 68 67 70 71 69 68 66 63 64 65 65 64 65 66 65 65 63 64 62 62 63 62 61 60 60 66 64
7 6 6 5 3 1 1 4 8 5 2 5 4 4 -5 -7 -4 -0 9 20 20 25 31 47 52 54 51 57 57 59 59 62 63 64 65 66 65 65 66 66 64 65 65 67 66 65 66 67 66 68 68 68 67 66 67 68 67 68 68 68 68 68 68 68 70 67 69 69 69 68 69 67 65 67 66 68 67 64 65 65 64 64 66 66 65 67 68 63 63 62 62 60 62 60 60 65 64
6 2 5 2 1 3 6 8 7 -1 8 7 3 6 -5 -4 -5 -1 18 19 20 24 26 51 47 50 51 55 57 57 59 61 61 64 65 65 65 64 64 64 63 63 65 66 66 65 65 66 68 68 68 67 67 68 68 68 69 69 68 68 68 67 65 65 68 67 66 68 69 67 68 66 67 66 65 66 67 66 65 65 65 66 66 65 67 68 66 62 62 62 62 65 63 64 64 65 66
8 5 15 8 -1 -1 6 8 7 3 7 5 2 -6 -7 -8 6 10 17 16 19 24 25 35 45 45 52 54 56 56 56 58 59 61 63 65 65 63 63 63 63 63 65 66 66 65 66 67 68 67 67 67 67 68 68 68 69 68 67 67 65 67 66 68 66 67 68 67 69 68 68 67 65 66 66 66 67 67 67 67 65 66 66 65 65 67 63 61 63 62 66 66 66 66 65 64 66
10 6 6 8 5 0 0 8 7 6 3 1 4 -3 -2 1 10 14 17 15 21 21 23 29 52 52 54 51 53 55 56 56 57 58 64 65 63 63 65 65 64 64 65 66 66 66 66 66 66 68 67 67 68 68 68 68 68 67 67 66 67 65 65 64 63 65 66 69 68 69 68 69 67 66 65 65 66 65 65 66 65 66 65 68 67 65 63 67 66 66 66 66 66 65 64 64 63
13 14 12 6 7 9 4 3 6 7 5 2 6 4 -2 -2 1 8 13 16 15 22 23 27 38 43 47 46 48 51 55 57 58 59 61 64 63 62 64 66 65 65 66 66 66 66 67 66 67 68 67 67 67 67 67 67 67 69 67 66 66 66 64 63 66 66 67 69 68 67 67 69 67 66 66 66 66 65 64 66 65 66 66 66 66 64 64 65 65 67 66 66 65 66 65 65 63
7 7 10 7 8 4 2 2 9 8 7 4 3 5 2 0 1 3 7 14 18 20 26 26 34 39 47 45 44 49 53 55 58 61 62 63 63 64 65 64 66 65 66 67 65 65 66 67 67 67 67 66 67 66 66 66 66 65 65 65 65 65 65 66 67 68 68 67 66 67 67 67 67 67 66 66 67 67 68 67 66 65 68 67 66 63 67 65 65 65 64 65 64 65 66 65 64
9 11 11 8 6 6 -0 6 8 9 7 6 6 7 4 5 5 7 5 14 20 20 24 27 29 36 41 41 45 47 51 54 55 59 64 63 62 64 65 65 66 66 67 67 67 66 66 65 66 66 66 67 66 65 65 65 63 63 64 62 64 65 63 64 66 67 66 67 65 66 68 68 66 66 66 66 67 68 67 68 66 66 67 65 65 64 66 65 65 66 68 65 64 64 64 65 65
15 12 8 5 2 2 2 4 11 10 18 6 9 6 8 8 8 7 9 14 16 19 21 26 29 28 33 40 43 46 50 50 54 61 64 63 62 64 66 66 65 66 66 66 66 67 67 66 66 66 65 66 65 65 64 66 66 64 62 61 63 64 63 64 65 66 66 66 66 66 67 67 66 66 66 66 67 68 67 68 66 66 66 65 65 65 65 65 65 65 65 65 63 65 64 66 65
21 15 10 7 5 4 5 9 11 12 12 10 5 3 5 9 10 8 11 11 18 20 19 22 26 27 27 34 40 46 50 50 49 57 64 64 63 63 65 66 66 66 66 66 67 67 66 66 66 66 65 65 66 66 65 65 65 65 64 63 63 66 64 64 66 66 67 67 67 67 66 66 66 65 66 65 67 67 67 66 65 65 66 65 66 65 64 66 65 65 64 63 65 65 64 65 66
18 14 12 8 6 5 5 6 10 11 12 11 10 10 12 14 15 15 15 9 13 13 13 13 18 24 26 29 34 42 50 52 49 58 63 63 64 64 64 65 65 65 66 66 66 66 66 65 66 66 66 66 65 65 65 66 66 66 66 66 66 66 65 64 66 67 67 66 66 66 65 67 66 66 64 64 65 65 64 65 65 66 65 65 64 65 65 64 65 64 63 63 64 62 64 63 65
20 16 10 7 4 4 4 9 14 16 15 22 13 16 10 10 7 8 12 11 8 8 13 15 16 16 21 27 30 37 43 57 54 54 61 63 63 63 64 64 65 65 66 66 66 65 64 65 66 66 66 66 66 65 65 65 65 66 65 66 65 66 66 65 64 64 64 65 65 65 66 65 66 66 65 65 65 64 65 66 64 64 64 65 64 63 64 63 63 66 63 63 63 63 62 63 63
14 18 12 9 8 8 2 13 12 13 12 13 8 5 9 9 6 4 4 6 8 8 14 13 15 16 16 22 26 30 39 58 55 56 60 62 63 63 63 65 64 65 66 66 66 65 65 65 66 65 66 65 64 64 65 64 64 65 63 63 62 62 62 62 61 63 63 63 65 64 65 65 65 65 64 63 63 64 65 65 65 63 65 65 65 66 63 62 62 63 64 65 64 63 63 63 62
15 13 12 11 9 9 9 10 10 7 9 14 13 11 8 9 5 7 9 5 5 12 14 10 12 12 10 16 18 21 28 47 52 48 55 61 62 62 64 64 64 65 65 66 66 65 65 65 65 65 65 65 65 64 65 65 64 64 64 63 63 63 62 62 63 66 64 62 65 66 66 65 63 63 63 62 65 65 65 65 65 65 63 64 64 65 66 64 61 60 63 63 64 63 64 61 62
9 10 14 14 13 11 10 6 6 8 11 13 15 14 12 9 7 10 12 15 11 9 13 15 8 10 8 12 14 23 23 39 48 46 50 58 61 61 63 63 65 66 65 65 66 65 65 65 65 65 65 64 65 65 64 65 64 64 65 64 63 63 62 62 65 64 64 63 65 63 64 64 63 65 64 62 63 63 64 64 64 64 63 62 63 63 64 64 63 61 65 67 66 65 64 63 62
9 8 14 14 11 8 5 6 10 11 12 6 12 8 11 9 11 7 9 9 13 13 14 13 11 9 10 12 13 16 21 26 49 50 53 57 60 62 62 63 66 65 65 65 65 65 66 65 66 66 65 65 65 65 64 65 64 64 65 62 63 64 64 64 65 63 63 64 64 65 65 64 65 65 64 64 64 63 63 64 63 63 64 63 62 61 62 62 64 64 65 65 65 64 64 64 63
11 10 15 14 11 10 9 10 6 9 11 10 11 13 8 8 12 7 6 4 12 16 14 11 13 13 13 14 18 20 17 25 48 53 54 57 60 61 62 64 64 64 65 65 65 65 66 66 66 65 64 64 64 65 64 65 64 65 64 64 63 63 63 65 63 63 64 64 66 65 65 63 62 63 63 64 65 63 64 64 63 63 64 63 62 61 61 62 63 65 64 65 66 65 65 64 64
15 16 14 12 9 10 11 11 10 12 8 9 14 15 5 3 12 9 11 16 18 18 15 16 37 36 34 39 33 30 26 27 51 50 50 52 61 63 63 64 64 64 65 65 65 64 65 65 65 64 64 64 64 65 65 65 65 64 64 64 63 62 63 63 61 61 62 64 63 63 62 62 62 61 63 63 63 63 64 64 64 64 64 64 63 61 62 61 63 65 64 65 64 65 64 63 62
15 14 11 7 10 10 13 18 15 11 8 10 11 9 5 6 12 8 11 17 23 24 20 26 37 36 35 39 36 37 31 39 57 58 57 59 61 61 63 63 64 64 64 63 63 64 65 64 64 63 64 64 64 64 65 65 64 64 65 63 62 63 63 60 61 62 61 62 61 61 62 62 62 62 62 62 63 61 64 65 65 64 64 65 63 63 63 62 63 62 64 65 64 65 64 64 63
16 14 11 8 7 17 10 12 10 8 10 10 4 6 11 11 15 14 9 15 17 29 31 33 33 36 39 36 42 41 38 37 53 55 58 60 60 61 62 62 64 64 63 62 63 64 64 64 64 63 63 64 64 64 65 65 65 64 64 64 63 64 64 62 62 62 61 59 59 60 61 61 62 62 61 61 62 62 62 62 64 66 65 65 65 63 64 63 62 66 65 64 66 64 65 64 64
13 12 14 10 5 9 12 11 12 11 16 11 13 13 11 12 11 15 13 27 32 35 37 37 39 44 44 39 46 44 39 39 58 57 58 58 60 61 61 61 62 62 63 61 62 63 64 63 63 63 63 63 63 64 64 65 64 64 64 63 66 63 61 62 62 59 60 59 59 60 60 61 60 60 59 60 61 60 59 61 62 64 64 65 64 65 64 62 63 61 62 62 62 65 65 65 64
9 9 5 10 10 10 11 9 12 11 12 16 11 16 14 13 14 27 24 24 35 36 37 39 40 38 49 47 41 45 45 43 55 56 57 59 61 61 61 62 61 61 62 62 62 63 63 62 63 62 62 63 63 63 62 62 62 63 63 62 64 62 61 60 58 60 61 61 61 59 60 58 58 58 57 60 59 59 60 60 61 61 61 65 63 64 64 64 64 62 61 62 62 64 63 64 62
11 9 7 9 15 13 8 14 18 22 16 16 21 18 17 16 23 23 21 32 37 38 38 42 44 50 51 45 46 45 46 49 54 56 58 60 61 61 61 61 61 60 62 62 62 62 62 61 62 62 62 63 63 63 63 62 62 63 64 63 62 61 60 60 60 60 61 60 60 59 59 60 59 59 60 60 59 59 59 59 60 59 60 62 64 64 64 63 64 63 62 63 63 61 63 63 63
15 10 11 9 9 9 16 18 22 26 19 13 15 21 18 18 13 19 25 32 38 41 41 45 48 54 54 50 53 51 52 49 53 57 57 59 60 61 59 60 60 61 61 62 62 62 62 61 61 61 62 62 60 62 63 62 63 63 63 62 63 61 60 60 61 60 61 60 60 60 59 60 60 60 60 60 59 59 58 58 56 56 60 61 62 64 64 63 63 64 63 64 64 63 63 61 62
11 16 11 9 7 11 18 11 16 16 14 14 16 9 10 12 13 25 28 34 36 39 45 48 50 55 54 54 55 54 55 56 57 59 59 59 59 59 58 59 60 61 61 62 63 63 63 62 62 62 61 62 59 61 62 63 63 63 62 61 61 60 60 61 61 60 60 60 60 60 61 59 59 59 59 59 59 59 59 57 57 57 60 60 60 59 58 61 64 63 63 63 63 64 63 63 62
8 11 13 11 12 10 16 15 13 15 15 12 12 11 14 12 25 30 34 39 42 44 43 47 47 52 53 54 54 54 55 55 55 54 57 58 58 58 58 59 59 61 62 62 62 62 62 62 60 62 62 61 60 60 62 62 63 62 60 61 61 60 60 61 60 60 60 59 59 59 59 59 59 58 57 59 58 57 58 57 57 57 59 59 60 59 59 58 59 62 63 63 63 63 62 63 63
11 10 10 11 16 21 16 14 14 15 11 13 9 10 20 33 32 38 35 43 43 41 44 45 47 49 53 53 54 55 56 55 55 56 55 58 58 58 59 60 59 63 63 63 62 61 62 61 61 60 60 61 61 60 63 61 62 61 61 58 60 57 57 57 57 59 58 58 57 58 58 58 58 56 57 57 56 55 56 56 56 56 56 58 57 59 59 57 58 59 62 61 62 62 60 61 61
10 11 12 12 21 19 16 25 17 16 14 10 11 11 25 35 39 39 40 43 43 45 47 47 46 48 52 52 53 55 56 56 57 55 55 57 58 61 61 61 61 60 60 60 61 61 59 59 60 60 60 60 61 60 62 63 61 60 58 59 58 58 57 56 57 58 58 58 58 58 57 57 55 56 57 56 55 55 53 54 53 53 53 55 56 58 59 58 58 58 62 61 60 60 61 63 60
13 12 12 8 13 12 11 13 16 22 19 16 14 15 32 37 42 43 43 46 48 47 46 46 47 48 50 51 53 53 53 54 54 56 57 56 58 59 61 60 60 59 59 59 62 62 58 58 58 58 59 59 60 60 63 61 60 58 57 58 59 59 57 57 58 58 58 57 57 58 58 56 57 55 55 53 54 55 54 53 51 51 53 53 54 55 57 57 56 58 59 59 59 57 55 53 55